Location: *
(49.4547°N, 7.9131°E)
Time: 12:36:31
(UTC+00:00)

NOAA 11 - Pass Details

Date: 22 September 2019
Orbit: 832 x 850 km, 98.4° (Epoch: 20 October)

Event Time Altitude Azimuth Distance (km) Brightness Sun altitude
Rises 17:44:39 0° 148° (SSE) 3,403 7.0 -3.7°
Reaches altitude 10° 17:47:04 10° 144° (SE) 2,470 6.3 -4.0°
Maximum altitude 17:52:23 54° 69° (ENE) 1,029 4.4 -4.9°
Drops below altitude 10° 17:57:43 10° 353° (N) 2,477 6.8 -5.8°
Sets 18:00:07 0° 349° (N) 3,414 7.6 -6.2°
